Flag for U.S.A. Weather past 2 weeks in Pembroke Pines, Florida, U.S.A.

Now
92 °F

Partly sunny.


Feels Like: 99 °F
Forecast: 78 / 89 °F
Wind: N/A

Location: North Perry Airport

Current Time: Aug 28, 2015 at 2:01:58 PM

Latest Report: Aug 28, 2015 at 12:53 PM


Visibility: 10 mi

Pressure: 30.02 "Hg

Humidity: 51%

Dew point: 71 °F

Location of Pembroke PinesLocation

Historic Weather in Pembroke Pines — Graph

°F

Pembroke Pines temperature yesterday

Maximum temperature yesterday: 88 °F (at 4:53 PM)
Minimum temperature yesterday: 76 °F (at 11:53 AM)
Average temperature yesterday: 81 °F

Past Weeks' High & Low Weather Summary

 TemperatureHumidityPressure
High94 °F (Aug 22, 1:53 PM)97% (Aug 14, 6:53 AM)30.10 "Hg (Aug 14, 6:53 AM)
Low74 °F (Aug 13, 9:53 PM)50% (Aug 21, 5:53 PM)29.89 "Hg (Aug 24, 5:53 PM)
Average84 °F74%30.00 "Hg
* Reported Aug 13 12:53 PM — Aug 28 12:53 PM, Pembroke Pines, Weather by CustomWeather, © 2015

Note: Actual official high and low records may vary slightly from our data, if they occured in-between our weather recording intervals... More about our weather records

Advertising

Pembroke Pines weather history for previous 24 hours

 ConditionsComfort  
Time TempWeatherWind HumidityBarometerVisibility
12:53 PM
Fri, Aug 28
92 °FPartly sunny.N/A51%30.02 "Hg10 mi
11:53 AM89 °FSunny.6 mph52%30.03 "Hg10 mi
10:53 AM88 °FSunny.5 mph57%30.03 "Hg10 mi
9:53 AM85 °FSunny.8 mph70%30.02 "Hg10 mi
8:53 AM86 °FSunny.5 mph75%30.02 "Hg10 mi
7:53 AM81 °FClear.No wind88%30.01 "Hg10 mi
6:53 AM78 °FClear.No wind87%29.98 "Hg10 mi
5:53 AM78 °FClear.3 mph87%29.97 "Hg10 mi
4:53 AM80 °FClear.5 mph81%29.95 "Hg10 mi
3:53 AM80 °FClear.3 mph81%29.96 "Hg10 mi
2:53 AM81 °FClear.7 mph79%29.96 "Hg10 mi
1:53 AM80 °FPassing clouds.3 mph81%29.99 "Hg10 mi
12:53 AM81 °FClear.6 mph79%30.00 "Hg10 mi
11:53 PM
Thu, Aug 27
82 °FPartly cloudy.6 mph77%30.02 "Hg10 mi
10:53 PM81 °FClear.7 mph74%30.02 "Hg10 mi
9:53 PM81 °FClear.6 mph79%30.00 "Hg10 mi
8:53 PM81 °FPassing clouds.7 mph79%29.98 "Hg10 mi
7:53 PM82 °FSunny.8 mph74%29.95 "Hg10 mi
6:53 PM84 °FSunny.12 mph70%29.94 "Hg10 mi
5:53 PM86 °FScattered clouds.9 mph65%29.95 "Hg10 mi
4:53 PM88 °FSunny.3 mph54%29.95 "Hg10 mi
3:53 PM87 °FSunny.No wind55%29.94 "Hg10 mi
2:53 PM85 °FSunny.No wind61%29.98 "Hg10 mi
Weather by CustomWeather, © 2015

See weather overviewHow to use our weather pages